Location: ?????
(55.6500°N, 37.2500°E)
Time: 11:15:16
(UTC+00:00)

SPOT 3 Rocket - Pass Details

Date: 19 May 2025
Orbit: 775 x 790 km, 98.5° (Epoch: 13 June)

Event Time Altitude Azimuth Distance (km) Brightness Sun altitude
Exits shadow 18:22:24 - 153° (SSE) 2,789 5.8 -4.9°
Reaches altitude 10° 18:23:34 10° 152° (SSE) 2,327 5.4 -5.0°
Maximum altitude 18:28:40 70° 69° (ENE) 828 3.7 -5.5°
Drops below altitude 10° 18:33:47 10° 347° (NNW) 2,339 7.2 -5.9°
Sets 18:36:07 0° 345° (NNW) 3,270 8.1 -6.2°
